Location: Karcze
(52.0945°N, 22.4786°E)
Time: 07:27:45
(UTC+00:00)

Transit 2A Rocket - Pass Details

Date: 03 August 2021
Orbit: 586 x 917 km, 66.7° (Epoch: 24 September)

Event Time Altitude Azimuth Distance (km) Brightness Sun altitude
Rises 12:26:39 0° 211° (SSW) 2,864 8.6 49.0°
Reaches altitude 10° 12:28:49 10° 209° (SSW) 1,994 8.1 48.8°
Maximum altitude 12:33:17 73° 126° (SE) 694 5.6 48.3°
Drops below altitude 10° 12:38:12 10° 42° (NE) 2,188 7.1 47.8°
Sets 12:40:41 0° 40° (NE) 3,168 7.8 47.5°
